AirNav   TITAN Aviation Fuels
 
 1343 users online  

1KY7 Jordan Hill Farm Airport
Richmond, Kentucky, USA

GOING TO RICHMOND?


FAA INFORMATION EFFECTIVE 19 MAY 2022

Location

FAA Identifier: 1KY7
Lat/Long: 37-49-57.0000N 084-10-51.0000W
37-49.950000N 084-10.850000W
37.8325000,-84.1808333
(estimated)
Elevation: 910 ft. / 277 m (estimated)
Variation: 03W (1990)
From city: 8 miles NE of RICHMOND, KY
Time zone: UTC -4 (UTC -5 during Standard Time)
Zip code: 40475

Airport Operations

Airport use: Private use. Permission required prior to landing
Activation date: 11/1994
Control tower: no
ARTCC: INDIANAPOLIS CENTER
FSS: LOUISVILLE FLIGHT SERVICE STATION
Attendance: UNATNDD
Wind indicator: yes
Segmented circle: no

Airport Communications

WX AWOS-3 at RGA (14 nm SW): 119.625 (859-985-5969)
WX AWOS-3 at IOB (17 nm NE): 120.675 (859-498-7001)

Nearby radio navigation aids

VOR radial/distance  VOR name  Freq  Var
HYKr120/16.0LEXINGTON VOR/DME112.6000E

 
NDB name  Hdg/Dist  Freq  Var  ID
SECO305/8.439303WXYC -..- -.-- -.-.
MOUNT STERLING221/16.621006WIOB .. --- -...
GOODALL064/31.731103WDVK -.. ...- -.-

Airport Services

Runway Information

Runway 18/36

Dimensions: 2000 x 125 ft. / 610 x 38 m
Surface: turf, in good condition
Runway edge markings: 18/36 OUTLINED WITH ORANGE REFLECTIVE BARRELS.
Operational restrictions: ALL LANDINGS FROM THE NORTH; TAKEOFFS TO THE NORTH.
RUNWAY 18  RUNWAY 36
Traffic pattern: leftleft
Obstructions: none40 ft. pline, 300 ft. from runway

Airport Ownership and Management from official FAA records

Ownership: Privately-owned
Owner: JERRY BRACKETT
722 WALKER PARK ROAD
RICHMOND, KY 40475
Phone 606-623-8114
Manager: JERRY BRACKETT
722 WALKER PARK ROAD
RICHMOND, KY 40475
Phone 606-623-8114

Airport Operational Statistics

Aircraft based on the field: 3
Single engine airplanes: 3
    

Additional Remarks

FOR CD CTC LEXINGTON APCH AT 859-514-7890.

Instrument Procedures

There are no published instrument procedures at 1KY7.

Some nearby airports with instrument procedures:

KRGA - Central Kentucky Regional Airport (14 nm SW)
KIOB - Mount Sterling/Montgomery County Airport (17 nm NE)
KLEX - Blue Grass Airport (24 nm NW)
27K - Georgetown-Scott County Regional Airport (27 nm NW)
KDVK - Stuart Powell Field Airport (32 nm SW)
 
Loc | Ops | Rwys | IFR | FBO | Links
Com | Nav | Svcs | Stats | Notes
Area around 1KY7 (Jordan Hill Farm Airport)
 
Road maps at: MapQuest Bing Google
 
Aerial photo
No photo
 
Sectional chart

 
Airport distance calculator
Flying to Jordan Hill Farm Airport? Find the distance to fly.

From to 1KY7

Sunrise and sunset
Times for 27-May-2022
 Local
(UTC-4)
 Zulu
(UTC)
Morning civil twilight05:4909:49
Sunrise06:1910:19
Sunset20:4800:48
Evening civil twilight21:1901:19

Current date and time
Zulu (UTC)  27-May-2022 16:09:44
Local (UTC-4)  27-May-2022 12:09:44
 
METAR
KRGA 
14nm SW 
271555Z AUTO 26012G16KT 10SM SCT020 BKN030 BKN055 18/13 A2985 RMK AO2
KIOB 
17nm NE 
271555Z AUTO 26008KT 10SM SCT028 BKN036 17/13 A2985 RMK AO2 PWINO
KLEX 
23nm NW 
271554Z 21010KT 10SM -RA FEW020 BKN030 OVC040 17/13 A2983 RMK AO2 RAB51 SLP094 P0000 T01720133
K27K 
27nm NW 
271555Z AUTO 22012G21KT 10SM 18/13 A2982 RMK AO1
TAF
KLEX 
23nm NW 
271300Z 2713/2812 19008KT P6SM VCSH BKN018 FM271400 22010KT P6SM VCSH BKN035 FM271500 22010G18KT P6SM VCSH BKN026 FM271800 24012KT P6SM VCTS BKN027CB FM272100 25011KT P6SM BKN060 FM281000 29006KT P6SM SCT014
NOTAMs
Click for the latest NOTAMs
NOTAMs are issued by the DoD/FAA and will open in a separate window not controlled by AirNav.

 

 
 

Would you like to see your business listed on this page?

 If your business provides an interesting product or service to pilots, flight crews, aircraft, or users of the Jordan Hill Farm Airport, you should consider listing it here.  To start the listing process, click on the button below
 
Add a business
 

Other Pages about Jordan Hill Farm Airport

Update a link
 
Copyright © AirNav, LLC. All rights reserved. Privacy Policy  Contact